Bloomington, IN

8:45 PM EST on February 24, 2017 (GMT -0500)
Monroe County

Weather History for KBMG - January, 2014

Change the Weather History Date:

Friday, January 31, 2014

  Actual Average Record
Temperature  
Mean Temperature 37 °F 30 °F  
Max Temperature 41 °F 40 °F 63 °F (2016)
Min Temperature 33 °F 21 °F -22 °F (2004)
Degree Days  
Heating Degree Days 28 35  
Month to date heating degree days 1291 1107  
Since 1 July heating degree days 3442 3175  
Cooling Degree Days 0 0  
Month to date cooling degree days 0 0  
Year to date cooling degree days 0 0  
Moisture  
Dew Point 14 °F    
Average Humidity 56    
Maximum Humidity 82    
Minimum Humidity 29    
Precipitation  
Precipitation 0.00 in 0.10 in 1.35 in (2002)
Month to date precipitation 2.32 3.31  
Year to date precipitation 2.32 3.31  
Sea Level Pressure  
Sea Level Pressure 30.07 in    
Wind  
Wind Speed 6 mph (South)    
Max Wind Speed 15 mph    
Max Gust Speed 19 mph    
Visibility 9 miles    
Events      
T = Trace of Precipitation, MM = Missing Value Source: NWS Daily Summary

Daily Weather History Graph

Daily Weather History Graph

Search for Another Location

Airport or City:

Trip Planner

Search our weather history database for the weather conditions in past years. The results will help you decide how hot, cold, wet, or windy it might be!

Date:

Astronomy

Jan. 31, 2014 Rise Set
Actual Time 7:54 AM EST 6:06 PM EST
Civil Twilight 7:25 AM EST 6:34 PM EST
Nautical Twilight 6:53 AM EST 7:06 PM EST
Astronomical Twilight 6:22 AM EST 7:38 PM EST
Moon 8:04 AM EST (1/31) 7:28 PM EST (1/31)
Length of Visible Light 11h 08m
Length of Day
10h 12m
New Moon, 1% of the Moon is Illuminated
Jan 31
New Moon
Feb 6
First Quarter
Feb 14
Full
Feb 22
Last Quarter
Mar 1
New

Hourly Weather History & Observations

Time (EST) Temp. Windchill Dew Point Humidity Pressure Visibility Wind Dir Wind Speed Gust Speed Precip Events Conditions
12:53 AM 36.0 °F 27.5 °F 7.0 °F 30% 30.01 in 10.0 mi WSW 12.7 mph - N/A   Mostly Cloudy
1:53 AM 36.0 °F 28.0 °F 8.1 °F 31% 30.01 in 10.0 mi SW 11.5 mph - N/A   Overcast
2:53 AM 36.0 °F 29.0 °F 9.0 °F 33% 30.01 in 10.0 mi WSW 9.2 mph - N/A   Overcast
3:53 AM 34.0 °F 26.0 °F 9.0 °F 35% 30.02 in 10.0 mi SW 10.4 mph - N/A   Overcast
4:53 AM 34.0 °F 28.0 °F 9.0 °F 35% 30.04 in 10.0 mi SW 6.9 mph - N/A   Overcast
5:53 AM 34.0 °F 28.8 °F 8.1 °F 34% 30.05 in 10.0 mi WSW 5.8 mph - N/A   Overcast
6:53 AM 34.0 °F 28.0 °F 9.0 °F 35% 30.06 in 10.0 mi SW 6.9 mph - N/A   Overcast
7:53 AM 33.1 °F 27.7 °F 10.0 °F 38% 30.08 in 10.0 mi South 5.8 mph - N/A   Overcast
8:53 AM 34.0 °F 29.8 °F 9.0 °F 35% 30.09 in 10.0 mi South 4.6 mph - N/A   Overcast
9:53 AM 35.1 °F 30.1 °F 9.0 °F 34% 30.10 in 10.0 mi South 5.8 mph - N/A   Overcast
10:53 AM 35.1 °F 31.0 °F 9.0 °F 34% 30.13 in 10.0 mi SSW 4.6 mph - N/A   Overcast
11:53 AM 37.0 °F 33.3 °F 9.0 °F 31% 30.13 in 10.0 mi WSW 4.6 mph - N/A   Overcast
12:53 PM 37.9 °F 35.5 °F 10.0 °F 32% 30.11 in 10.0 mi Variable 3.5 mph - N/A   Mostly Cloudy
1:53 PM 39.0 °F - 10.0 °F 30% 30.09 in 10.0 mi Calm Calm - N/A   Overcast
2:53 PM 39.9 °F - 10.9 °F 31% 30.09 in 10.0 mi Calm Calm - N/A   Clear
3:53 PM 39.9 °F 35.8 °F 12.9 °F 33% 30.09 in 10.0 mi SSE 5.8 mph - N/A   Scattered Clouds
4:53 PM 39.9 °F 36.7 °F 12.9 °F 33% 30.08 in 10.0 mi East 4.6 mph - N/A   Overcast
5:53 PM 39.0 °F 36.8 °F 14.0 °F 36% 30.08 in 10.0 mi East 3.5 mph - N/A   Overcast
6:53 PM 37.9 °F 34.4 °F 16.0 °F 41% 30.08 in 10.0 mi ENE 4.6 mph - N/A   Overcast
7:53 PM 37.9 °F 33.5 °F 15.1 °F 39% 30.07 in 10.0 mi East 5.8 mph - N/A   Overcast
8:53 PM 37.0 °F 32.4 °F 16.0 °F 42% 30.07 in 10.0 mi ESE 5.8 mph - N/A   Overcast
9:53 PM 37.9 °F 30.0 °F 19.9 °F 48% 30.07 in 10.0 mi South 12.7 mph - N/A   Overcast
10:05 PM 37.0 °F 31.0 °F 21.9 °F 54% 30.05 in 10.0 mi SSE 8.1 mph - N/A   Overcast
10:53 PM 34.0 °F 29.8 °F 28.9 °F 82% 30.07 in 7.0 mi South 4.6 mph - N/A   Overcast
11:38 PM 34.0 °F 29.8 °F 30.9 °F 89% 30.03 in 4.0 mi ESE 4.6 mph - N/A   Overcast
11:53 PM 34.0 °F - 30.9 °F 89% 30.05 in 3.0 mi Calm Calm - N/A   Overcast